{"data":{"norad_id":53802,"epoch":"2026-05-25T02:24:02.714688Z","epoch_age_seconds":62292,"freshness":"FRESH","line1":"1 53802U 22111AF  26145.10003142  .00002211  00000+0  15693-3 0  9996","line2":"2 53802  53.2166 280.9667 0001391  84.2696 275.8454 15.08855464205356","mean_motion":15.08855464,"eccentricity":0.0001391,"inclination_deg":53.2166,"raan_deg":280.9667,"arg_perigee_deg":84.2696,"mean_anomaly_deg":275.8454,"bstar":0.00015693,"rev_number":20535,"period_min":95.436576554691,"perigee_km":538.73385151898,"apogee_km":540.65839269355,"semimajor_km":6917.8331221063,"source":"CELESTRAK","updated_at":"2026-05-25T13:38:17.565655Z"}}